• En España
  • Lista de países
  • Para 7 días
  • Temperatura del agua
  • Mapa Satelital
  • El tiempo en el mapa
  • Informadores
  • user-avatar
    Iniciar sesión

    Tiempo cada hora Pauliny

    Hoy, 18 Septiembre, Martes

    Tiempo Temperatura Precipitaciones Viento Presión Humedad
    00:00 +16°C° 0 mm 2 mps 756 mmHg 65%
    01:00 +16°C° 0 mm 2 mps 756 mmHg 65%
    02:00 +16°C° 0 mm 2 mps 756 mmHg 66%
    03:00 +16°C° 0 mm 2 mps 756 mmHg 67%
    04:00 +16°C° 0 mm 2 mps 756 mmHg 68%
    05:00 +16°C° 0 mm 2 mps 756 mmHg 68%
    06:00 +16°C° 0 mm 2 mps 756 mmHg 68%
    07:00 +17°C° 0 mm 2 mps 756 mmHg 65%
    08:00 +19°C° 0 mm 2 mps 756 mmHg 60%
    09:00 +21°C° 0 mm 3 mps 756 mmHg 54%
    10:00 +24°C° 0 mm 3 mps 756 mmHg 49%
    11:00 +25°C° 0 mm 3 mps 755 mmHg 46%
    12:00 +27°C° 0 mm 3 mps 755 mmHg 43%
    13:00 +28°C° 0 mm 3 mps 755 mmHg 40%
    14:00 +28°C° 0 mm 3 mps 755 mmHg 41%
    15:00 +28°C° 0 mm 3 mps 754 mmHg 43%
    16:00 +27°C° 0 mm 3 mps 754 mmHg 44%
    17:00 +26°C° 0 mm 3 mps 754 mmHg 51%
    18:00 +24°C° 0 mm 3 mps 754 mmHg 57%
    19:00 +21°C° 0 mm 2 mps 754 mmHg 63%
    20:00 +20°C° 0 mm 2 mps 754 mmHg 65%
    21:00 +20°C° 0 mm 2 mps 754 mmHg 68%
    22:00 +20°C° 0 mm 3 mps 754 mmHg 71%
    23:00 +19°C° 0 mm 3 mps 754 mmHg 73%

    Mañana, 19 Septiembre, Miércoles

    Tiempo Temperatura Precipitaciones Viento Presión Humedad
    00:00 +19°C° 0 mm 3 mps 753 mmHg 75%
    01:00 +19°C° 0 mm 3 mps 753 mmHg 77%
    02:00 +18°C° 0 mm 3 mps 753 mmHg 78%
    03:00 +18°C° 0 mm 3 mps 753 mmHg 80%
    04:00 +17°C° 0 mm 3 mps 754 mmHg 81%
    05:00 +18°C° 0 mm 3 mps 754 mmHg 79%
    06:00 +18°C° 0 mm 3 mps 754 mmHg 77%
    07:00 +19°C° 0 mm 3 mps 754 mmHg 75%
    08:00 +21°C° 0 mm 3 mps 755 mmHg 68%
    09:00 +24°C° 0 mm 3 mps 755 mmHg 61%
    10:00 +26°C° 0 mm 3 mps 755 mmHg 54%
    11:00 +27°C° 0 mm 3 mps 755 mmHg 50%
    12:00 +28°C° 0 mm 3 mps 755 mmHg 46%
    13:00 +29°C° 0 mm 3 mps 755 mmHg 43%
    14:00 +29°C° 0 mm 3 mps 755 mmHg 43%
    15:00 +29°C° 0 mm 2 mps 755 mmHg 44%
    16:00 +29°C° 0 mm 2 mps 755 mmHg 45%
    17:00 +27°C° 0 mm 2 mps 755 mmHg 50%
    18:00 +25°C° 0 mm 1 mps 755 mmHg 56%
    19:00 +23°C° 0 mm 1 mps 756 mmHg 61%
    20:00 +23°C° 0 mm 1 mps 756 mmHg 63%
    21:00 +22°C° 0 mm 1 mps 756 mmHg 65%
    22:00 +22°C° 0 mm 1 mps 756 mmHg 67%
    23:00 +21°C° 0 mm 1 mps 755 mmHg 69%

    Pasado mañana, 20 Septiembre, Jueves

    Tiempo Temperatura Precipitaciones Viento Presión Humedad
    00:00 +20°C° 0 mm 2 mps 755 mmHg 70%
    01:00 +20°C° 0 mm 2 mps 755 mmHg 72%
    02:00 +19°C° 0 mm 2 mps 755 mmHg 74%
    03:00 +19°C° 0 mm 2 mps 755 mmHg 75%
    04:00 +19°C° 0 mm 2 mps 755 mmHg 77%
    05:00 +19°C° 0 mm 2 mps 755 mmHg 76%
    06:00 +20°C° 0 mm 2 mps 755 mmHg 75%
    07:00 +20°C° 0 mm 2 mps 755 mmHg 73%
    08:00 +22°C° 0 mm 3 mps 755 mmHg 67%
    09:00 +25°C° 0 mm 3 mps 755 mmHg 61%
    10:00 +27°C° 0 mm 3 mps 756 mmHg 55%
    11:00 +28°C° 0 mm 4 mps 755 mmHg 52%
    12:00 +29°C° 0 mm 4 mps 755 mmHg 50%
    13:00 +29°C° 0 mm 4 mps 755 mmHg 47%
    14:00 +29°C° 0 mm 4 mps 755 mmHg 48%
    15:00 +29°C° 0 mm 4 mps 755 mmHg 49%
    16:00 +29°C° 0 mm 3 mps 754 mmHg 50%
    17:00 +27°C° 0 mm 3 mps 754 mmHg 55%
    18:00 +25°C° 0 mm 2 mps 754 mmHg 61%
    19:00 +23°C° 0 mm 1 mps 754 mmHg 67%
    20:00 +23°C° 0 mm 1 mps 754 mmHg 69%
    21:00 +22°C° 0 mm 1 mps 754 mmHg 72%
    22:00 +21°C° 0 mm 1 mps 754 mmHg 74%
    23:00 +21°C° 0 mm 1 mps 754 mmHg 75%

    21 Septiembre, Viernes

    Tiempo Temperatura Precipitaciones Viento Presión Humedad
    00:00 +20°C° 0 mm 2 mps 754 mmHg 76%
    01:00 +19°C° 0 mm 2 mps 754 mmHg 77%
    02:00 +19°C° 0 mm 2 mps 753 mmHg 78%
    03:00 +19°C° 0 mm 2 mps 753 mmHg 78%
    04:00 +19°C° 0 mm 2 mps 753 mmHg 78%
    05:00 +19°C° 0 mm 3 mps 752 mmHg 76%
    06:00 +20°C° 0 mm 3 mps 752 mmHg 73%
    07:00 +21°C° 0 mm 4 mps 752 mmHg 71%
    08:00 +23°C° 0 mm 5 mps 752 mmHg 64%
    09:00 +26°C° 0 mm 5 mps 751 mmHg 56%
    10:00 +28°C° 0 mm 6 mps 751 mmHg 49%
    11:00 +29°C° 0 mm 7 mps 750 mmHg 46%
    12:00 +29°C° 0 mm 7 mps 750 mmHg 42%
    13:00 +30°C° 0 mm 7 mps 749 mmHg 39%
    14:00 +30°C° 0 mm 7 mps 748 mmHg 39%
    15:00 +29°C° 0 mm 7 mps 747 mmHg 39%
    16:00 +29°C° 0 mm 6 mps 747 mmHg 39%
    17:00 +28°C° 0 mm 6 mps 746 mmHg 41%
    18:00 +27°C° 0 mm 6 mps 745 mmHg 43%
    19:00 +26°C° 0 mm 6 mps 745 mmHg 45%
    20:00 +24°C° 0 mm 6 mps 745 mmHg 46%
    21:00 +24°C° 0 mm 7 mps 744 mmHg 46%
    22:00 +24°C° 0 mm 7 mps 744 mmHg 46%
    23:00 +21°C° 0.3 mm 7 mps 745 mmHg 55%

    22 Septiembre, Sábado

    Tiempo Temperatura Precipitaciones Viento Presión Humedad
    00:00 +17°C° 0.3 mm 8 mps 746 mmHg 63%
    01:00 +12°C° 0.3 mm 8 mps 747 mmHg 71%
    02:00 +12°C° 0.7 mm 8 mps 748 mmHg 73%
    03:00 +11°C° 0.7 mm 7 mps 749 mmHg 74%
    04:00 +10°C° 0.7 mm 6 mps 750 mmHg 76%
    05:00 +10°C° 0 mm 6 mps 751 mmHg 73%
    06:00 +10°C° 0 mm 6 mps 751 mmHg 70%
    07:00 +10°C° 0 mm 6 mps 751 mmHg 68%
    08:00 +11°C° 0 mm 7 mps 752 mmHg 66%
    09:00 +11°C° 0 mm 7 mps 752 mmHg 64%
    10:00 +11°C° 0 mm 8 mps 752 mmHg 63%
    11:00 +12°C° 0 mm 7 mps 752 mmHg 60%
    12:00 +14°C° 0 mm 7 mps 752 mmHg 57%
    13:00 +14°C° 0 mm 7 mps 752 mmHg 54%
    14:00 +15°C° 0.1 mm 7 mps 753 mmHg 53%
    15:00 +15°C° 0.1 mm 7 mps 753 mmHg 51%
    16:00 +15°C° 0.1 mm 7 mps 753 mmHg 50%
    17:00 +14°C° 0 mm 6 mps 753 mmHg 54%
    18:00 +13°C° 0 mm 5 mps 753 mmHg 58%
    19:00 +12°C° 0 mm 4 mps 753 mmHg 63%
    20:00 +11°C° 0 mm 4 mps 754 mmHg 64%
    21:00 +11°C° 0 mm 4 mps 754 mmHg 65%
    22:00 +10°C° 0 mm 5 mps 754 mmHg 67%
    23:00 +9°C° 0 mm 5 mps 754 mmHg 68%

    23 Septiembre, Domingo

    Tiempo Temperatura Precipitaciones Viento Presión Humedad
    00:00 +9°C° 0 mm 5 mps 754 mmHg 70%
    01:00 +9°C° 0 mm 5 mps 754 mmHg 71%
    02:00 +8°C° 0 mm 4 mps 754 mmHg 74%
    03:00 +8°C° 0 mm 4 mps 754 mmHg 76%
    04:00 +7°C° 0 mm 4 mps 754 mmHg 78%
    05:00 +7°C° 0 mm 4 mps 754 mmHg 78%
    06:00 +8°C° 0 mm 4 mps 754 mmHg 77%
    07:00 +8°C° 0 mm 4 mps 754 mmHg 76%
    08:00 +10°C° 0 mm 4 mps 754 mmHg 69%
    09:00 +12°C° 0 mm 5 mps 754 mmHg 62%
    10:00 +13°C° 0 mm 5 mps 754 mmHg 56%
    11:00 +14°C° 0 mm 5 mps 753 mmHg 52%
    12:00 +15°C° 0 mm 5 mps 753 mmHg 47%
    13:00 +15°C° 0 mm 5 mps 752 mmHg 43%
    14:00 +15°C° 0 mm 5 mps 751 mmHg 44%
    15:00 +15°C° 0 mm 5 mps 750 mmHg 45%
    16:00 +15°C° 0 mm 5 mps 750 mmHg 46%
    17:00 +14°C° 0 mm 5 mps 749 mmHg 49%
    18:00 +14°C° 0 mm 5 mps 747 mmHg 51%
    19:00 +13°C° 0 mm 5 mps 746 mmHg 54%
    20:00 +13°C° 0.5 mm 6 mps 745 mmHg 61%
    21:00 +11°C° 0.5 mm 7 mps 744 mmHg 68%
    22:00 +11°C° 0.5 mm 8 mps 743 mmHg 75%
    23:00 +11°C° 1.6 mm 8 mps 742 mmHg 78%
    Mostrar más